TimeEDT,TemperatureF,Dew PointF,Humidity,Sea Level PressureIn,VisibilityMPH,Wind Direction,Wind SpeedMPH,Gust SpeedMPH,PrecipitationIn,Events,Conditions,WindDirDegrees,DateUTC
12:05 AM,55.4,-9999,N/A,29.58,3.0,Calm,Calm,-,0.00,Rain,Light Rain,0,2013-06-12 04:05:00
12:20 AM,55.4,-9999,N/A,29.58,6.0,Calm,Calm,-,0.01,,Haze,0,2013-06-12 04:20:00
12:32 AM,55.4,-9999,N/A,29.58,6.0,Calm,Calm,-,0.01,,Haze,0,2013-06-12 04:32:00
12:56 AM,55.9,-9999,N/A,29.61,4.0,Calm,Calm,-,0.01,Rain,Light Rain,0,2013-06-12 04:56:00
1:06 AM,55.4,55.4,100,29.57,3.0,NNW,3.5,-,0.00,Rain,Light Rain,340,2013-06-12 05:06:00
1:48 AM,55.4,55.4,100,29.57,3.0,Calm,Calm,-,0.02,Rain,Light Rain,0,2013-06-12 05:48:00
1:56 AM,55.9,55.9,100,29.60,4.0,Calm,Calm,-,0.02,,Overcast,0,2013-06-12 05:56:00
2:25 AM,55.4,55.4,100,29.56,4.0,Calm,Calm,-,0.01,,Overcast,0,2013-06-12 06:25:00
2:56 AM,55.9,55.9,100,29.60,4.0,Calm,Calm,-,0.01,Rain,Light Rain,0,2013-06-12 06:56:00
3:49 AM,55.4,55.4,100,29.56,10.0,Calm,Calm,-,0.01,,Overcast,0,2013-06-12 07:49:00
3:56 AM,55.9,55.9,100,29.60,10.0,Calm,Calm,-,0.01,,Overcast,0,2013-06-12 07:56:00
4:56 AM,55.9,55.9,100,29.61,5.0,NW,4.6,-,0.01,Rain,Light Rain,320,2013-06-12 08:56:00
5:25 AM,55.4,55.4,100,29.59,7.0,NW,5.8,-,0.00,Rain,Light Rain,320,2013-06-12 09:25:00
5:35 AM,55.4,55.4,100,29.59,9.0,NW,4.6,-,0.00,,Overcast,310,2013-06-12 09:35:00
5:56 AM,55.9,55.9,100,29.63,10.0,WNW,3.5,-,0.00,,Overcast,290,2013-06-12 09:56:00
6:15 AM,55.4,55.4,100,29.60,10.0,West,4.6,-,N/A,,Overcast,270,2013-06-12 10:15:00
6:56 AM,57.0,55.9,96,29.64,10.0,WSW,4.6,-,N/A,,Overcast,250,2013-06-12 10:56:00
7:03 AM,57.2,55.4,94,29.61,10.0,WSW,5.8,-,N/A,,Overcast,250,2013-06-12 11:03:00
7:14 AM,57.2,57.2,100,29.61,10.0,West,5.8,-,N/A,,Overcast,260,2013-06-12 11:14:00
7:40 AM,57.2,57.2,100,29.60,10.0,West,5.8,-,N/A,,Overcast,260,2013-06-12 11:40:00
7:56 AM,59.0,57.9,96,29.64,10.0,West,6.9,-,N/A,,Overcast,270,2013-06-12 11:56:00
8:56 AM,61.0,57.0,87,29.65,10.0,West,12.7,18.4,N/A,,Mostly Cloudy,280,2013-06-12 12:56:00
9:56 AM,63.0,54.0,72,29.65,10.0,NW,16.1,24.2,N/A,,Mostly Cloudy,310,2013-06-12 13:56:00
10:56 AM,64.0,52.0,65,29.66,10.0,WNW,17.3,32.2,N/A,,Overcast,300,2013-06-12 14:56:00
11:03 AM,64.4,51.8,64,29.62,10.0,WNW,21.9,29.9,N/A,,Overcast,300,2013-06-12 15:03:00
11:56 AM,66.9,54.0,63,29.67,10.0,NW,17.3,23.0,N/A,,Mostly Cloudy,310,2013-06-12 15:56:00
12:56 PM,69.1,54.0,58,29.68,10.0,NW,17.3,28.8,N/A,,Mostly Cloudy,320,2013-06-12 16:56:00
1:56 PM,70.0,52.0,53,29.69,10.0,NW,19.6,34.5,N/A,,Mostly Cloudy,310,2013-06-12 17:56:00
2:56 PM,70.0,53.1,55,29.70,10.0,NW,23.0,29.9,N/A,,Mostly Cloudy,310,2013-06-12 18:56:00
3:56 PM,66.9,51.1,57,29.71,10.0,NW,16.1,26.5,N/A,,Overcast,310,2013-06-12 19:56:00
4:56 PM,66.0,52.0,60,29.73,10.0,NNW,9.2,18.4,N/A,,Overcast,340,2013-06-12 20:56:00
5:56 PM,66.9,54.0,63,29.74,10.0,NW,9.2,-,0.00,,Overcast,320,2013-06-12 21:56:00
6:56 PM,66.9,52.0,59,29.77,10.0,NW,10.4,-,N/A,,Overcast,320,2013-06-12 22:56:00
7:56 PM,66.0,52.0,60,29.79,10.0,NW,10.4,-,N/A,,Overcast,320,2013-06-12 23:56:00
8:56 PM,64.0,51.1,63,29.81,10.0,WNW,6.9,-,N/A,,Overcast,300,2013-06-13 00:56:00
9:56 PM,61.0,52.0,72,29.84,10.0,WNW,6.9,-,N/A,,Mostly Cloudy,300,2013-06-13 01:56:00
10:56 PM,59.0,52.0,78,29.85,10.0,NW,5.8,-,N/A,,Mostly Cloudy,310,2013-06-13 02:56:00
11:56 PM,55.0,51.1,86,29.84,10.0,Calm,Calm,-,N/A,,Clear,0,2013-06-13 03:56:00